This is the latest recevied weather packets stored in our database for station/object OM0AGP-15. If no packets are shown the sender has not sent any weather packets the latest 10 day(s).
| Time | Temp. | Humidity | Pressure | Rain* | Wind** | Luminosity | Snow |
|---|---|---|---|---|---|---|---|
| 1787405287 | 21.11° C | 53% | 1015.1 hPa | - | - | - | - |
| 1787404387 | 21.67° C | 60% | 1015 hPa | - | - | - | - |
| 1787403487 | 21.67° C | 49% | 1015 hPa | - | - | - | - |
| 1787402587 | 21.67° C | 48% | 1014.6 hPa | - | - | - | - |
| 1787401687 | 21.67° C | 44% | 1014.6 hPa | - | - | - | - |
| 1787400787 | 21.67° C | 60% | 1014.6 hPa | - | - | - | - |
| 1787399887 | 21.11° C | 51% | 1014.5 hPa | - | - | - | - |
| 1787398986 | 21.11° C | 58% | 1014.5 hPa | - | - | - | - |
| 1787398086 | 21.11° C | 48% | 1014.4 hPa | - | - | - | - |
| 1787397186 | 20.56° C | 52% | 1014.2 hPa | - | - | - | - |
| 1787396286 | 20.56° C | 51% | 1014.1 hPa | - | - | - | - |
| 1787395386 | 20.56° C | 49% | 1014.1 hPa | - | - | - | - |
| 1787394486 | 20.56° C | 58% | 1014.1 hPa | - | - | - | - |
| 1787393586 | 20° C | 74% | 1014 hPa | - | - | - | - |
| 1787392686 | 20° C | 57% | 1014 hPa | - | - | - | - |
| 1787391786 | 20° C | 67% | 1013.8 hPa | - | - | - | - |
| 1787390886 | 20° C | 75% | 1013.8 hPa | - | - | - | - |
| 1787389986 | 20° C | 60% | 1013.7 hPa | - | - | - | - |
| 1787389086 | 20.56° C | 50% | 1013.6 hPa | - | - | - | - |
| 1787388186 | 21.11° C | 59% | 1013.3 hPa | - | - | - | - |
| 1787387286 | 21.11° C | 57% | 1013.2 hPa | - | - | - | - |
| 1787386386 | 21.11° C | 51% | 1013 hPa | - | - | - | - |
| 1787385486 | 21.67° C | 53% | 1012.9 hPa | - | - | - | - |
| 1787384585 | 22.78° C | 46% | 1012.6 hPa | - | - | - | - |
| 1787383685 | 22.78° C | 46% | 1012.3 hPa | - | - | - | - |
* Rain since midnight (hover to see other rain measurements)
** Current wind speed in m/s (hover to see current wind gust speed)